"read_dt","SO2 (ppb)","flags","PMT voltage (V)","lamp voltage (V)","lamp intensity (Hz)","internal temp (C)","react chamber temp (C)","sample flow (l/min)","pres (mmHg)","SO2 bkg (ppb)","SO2 coefficient"
2018-06-07 00:00:00,-3.261E-01,4C000000*,-702.6,973.895,91,32.2,45.1,0.412,746.2,2.1,1.050*
2018-06-07 00:01:00,-2.778E-01,4C000000*,-702.3,973.086,90,32.2,44.9,0.412,746.2,2.1,1.050*
2018-06-07 00:02:00,-2.183E-01,4C000000*,-702.6,973.086,90,32.2,45.1,0.412,746.2,2.1,1.050*
2018-06-07 00:03:00,-3.264E-01,4C000000*,-702.6,972.278,90,32.3,45.1,0.412,746.5,2.1,1.050*
2018-06-07 00:04:00,-2.834E-01,4C000000*,-702.6,973.086,89,32.2,44.9,0.412,746.5,2.1,1.050*
2018-06-07 00:05:00,-2.151E-01,4C000000*,-702.6,973.895,89,32.2,45.2,0.412,746.2,2.1,1.050*
2018-06-07 00:06:00,-2.602E-01,4C000000*,-702.6,973.086,89,32.2,44.8,0.412,746.2,2.1,1.050*
2018-06-07 00:07:00,-2.535E-01,4C000000*,-702.6,973.895,89,32.2,45.1,0.412,746.2,2.1,1.050*
2018-06-07 00:08:00,-2.936E-01,4C000000*,-702.6,973.491,91,32.2,45.0,0.412,746.2,2.1,1.050*
2018-06-07 00:09:00,-2.549E-01,4C000000*,-703.0,973.086,90,32.3,45.1,0.412,746.2,2.1,1.050*
2018-06-07 00:10:00,-3.429E-01,4C000000*,-702.6,973.491,91,32.3,45.0,0.412,746.2,2.1,1.050*
2018-06-07 00:11:00,-3.613E-01,4C000000*,-703.0,972.682,90,32.2,44.9,0.412,746.5,2.1,1.050*
2018-06-07 00:12:00,-2.562E-01,4C000000*,-702.3,974.703,90,32.3,45.2,0.412,746.2,2.1,1.050*
2018-06-07 00:13:00,-2.846E-01,4C000000*,-702.6,975.108,89,32.3,44.9,0.412,746.5,2.1,1.050*
2018-06-07 00:14:00,-2.798E-01,4C000000*,-703.0,973.895,88,32.3,45.1,0.412,746.2,2.1,1.050*
2018-06-07 00:15:00,-1.941E-01,4C000000*,-702.3,973.491,90,32.3,44.9,0.412,746.2,2.1,1.050*
2018-06-07 00:16:00,-1.472E-01,4C000000*,-702.6,974.299,91,32.2,45.1,0.412,746.2,2.1,1.050*
2018-06-07 00:17:00,-3.506E-01,4C000000*,-703.0,973.491,90,32.3,45.1,0.412,746.5,2.1,1.050*
2018-06-07 00:18:00,-2.411E-01,4C000000*,-702.6,973.086,91,32.3,44.9,0.412,746.2,2.1,1.050*
2018-06-07 00:19:00,-2.934E-01,4C000000*,-702.6,973.086,90,32.4,45.1,0.412,746.2,2.1,1.050*
2018-06-07 00:20:00,-2.575E-01,4C000000*,-702.6,973.491,88,32.3,44.8,0.412,746.2,2.1,1.050*
2018-06-07 00:21:00,-2.435E-01,4C000000*,-702.6,975.108,90,32.3,45.1,0.412,746.2,2.1,1.050*
2018-06-07 00:22:00,-2.779E-01,4C000000*,-702.6,973.086,90,32.3,44.9,0.412,746.2,2.1,1.050*
2018-06-07 00:23:00,-2.262E-01,4C000000*,-702.3,973.895,90,32.3,45.2,0.412,746.2,2.1,1.050*
2018-06-07 00:24:00,-3.759E-01,4C000000*,-702.6,973.895,90,32.3,45.0,0.412,746.2,2.1,1.050*
2018-06-07 00:25:00,-2.590E-01,4C000000*,-702.6,975.108,90,32.3,45.0,0.412,746.5,2.1,1.050*
2018-06-07 00:26:00,-3.451E-01,4C000000*,-702.3,975.108,89,32.3,45.0,0.412,746.2,2.1,1.050*
2018-06-07 00:27:00,-3.076E-01,4C000000*,-702.6,973.895,91,32.3,44.9,0.412,746.5,2.1,1.050*
2018-06-07 00:28:00,-2.522E-01,4C000000*,-702.6,975.512,90,32.3,45.2,0.412,746.5,2.1,1.050*
2018-06-07 00:29:00,-2.722E-01,4C000000*,-702.6,975.108,90,32.3,44.9,0.412,746.5,2.1,1.050*
2018-06-07 00:30:00,-2.991E-01,4C000000*,-703.0,974.299,90,32.2,45.2,0.412,746.2,2.1,1.050*
2018-06-07 00:31:00,-2.905E-01,4C000000*,-702.6,973.895,89,32.3,45.0,0.412,746.2,2.1,1.050*
2018-06-07 00:32:00,-1.884E-01,4C000000*,-702.6,974.299,89,32.3,45.0,0.412,746.2,2.1,1.050*
2018-06-07 00:33:00,-3.072E-01,4C000000*,-702.3,974.299,91,32.3,45.1,0.412,746.2,2.1,1.050*
2018-06-07 00:34:00,-2.309E-01,4C000000*,-702.6,973.895,89,32.3,44.8,0.412,746.5,2.1,1.050*
2018-06-07 00:35:00,-2.745E-01,4C000000*,-702.6,973.895,90,32.4,45.0,0.412,746.5,2.1,1.050*
2018-06-07 00:36:00,-2.687E-01,4C000000*,-702.3,973.895,90,32.3,45.2,0.412,746.2,2.1,1.050*
2018-06-07 00:37:00,-2.564E-01,4C000000*,-703.0,973.491,88,32.3,45.0,0.412,746.5,2.1,1.050*
2018-06-07 00:38:00,-1.962E-01,4C000000*,-702.3,974.703,87,32.4,45.1,0.412,746.5,2.1,1.050*
2018-06-07 00:39:00,-2.776E-01,4C000000*,-702.3,974.299,91,32.4,44.9,0.412,746.5,2.1,1.050*
2018-06-07 00:40:00,-2.960E-01,4C000000*,-702.6,973.895,89,32.3,45.2,0.412,746.5,2.1,1.050*
2018-06-07 00:41:00,-3.300E-01,4C000000*,-702.6,973.086,89,32.3,44.9,0.412,746.5,2.1,1.050*
2018-06-07 00:42:00,-1.742E-01,4C000000*,-702.6,973.491,91,32.3,45.2,0.412,746.5,2.1,1.050*
2018-06-07 00:43:00,-2.372E-01,4C000000*,-702.6,973.086,90,32.3,45.0,0.412,746.2,2.1,1.050*
2018-06-07 00:44:00,-2.686E-01,4C000000*,-702.6,974.299,91,32.4,45.0,0.412,746.5,2.1,1.050*
2018-06-07 00:45:00,-2.563E-01,4C000000*,-702.3,973.086,90,32.4,45.1,0.412,746.5,2.1,1.050*
2018-06-07 00:46:00,-3.143E-01,4C000000*,-702.6,974.299,90,32.4,44.9,0.412,746.8,2.1,1.050*
2018-06-07 00:47:00,-2.578E-01,4C000000*,-702.3,975.108,88,32.3,45.1,0.412,746.8,2.1,1.050*
2018-06-07 00:48:00,-3.157E-01,4C000000*,-702.6,973.086,91,32.3,44.8,0.412,746.5,2.1,1.050*
2018-06-07 00:49:00,-2.939E-01,4C000000*,-702.6,973.086,90,32.4,45.2,0.412,746.8,2.1,1.050*
2018-06-07 00:50:00,-2.351E-01,4C000000*,-702.3,975.512,90,32.4,45.0,0.412,746.8,2.1,1.050*
2018-06-07 00:51:00,-2.709E-01,4C000000*,-702.6,973.895,91,32.4,45.0,0.412,746.8,2.1,1.050*
2018-06-07 00:52:00,-2.381E-01,4C000000*,-702.6,973.895,91,32.4,45.0,0.412,746.5,2.1,1.050*
2018-06-07 00:53:00,-2.486E-01,4C000000*,-702.6,973.895,89,32.4,44.9,0.412,746.8,2.1,1.050*
2018-06-07 00:54:00,-1.598E-01,4C000000*,-702.3,975.108,92,32.4,45.2,0.412,746.8,2.1,1.050*
2018-06-07 00:55:00,-2.119E-01,4C000000*,-702.6,974.299,91,32.4,44.9,0.412,746.8,2.1,1.050*
2018-06-07 00:56:00,-2.042E-01,4C000000*,-702.3,973.895,90,32.4,45.2,0.412,746.8,2.1,1.050*
2018-06-07 00:57:00,-5.377E-02,4C000000*,-702.6,973.895,89,32.4,44.9,0.412,746.5,2.1,1.050*
2018-06-07 00:58:00,-1.174E-01,4C000000*,-702.6,973.895,89,32.4,45.1,0.412,746.8,2.1,1.050*
2018-06-07 00:59:00,-2.765E-01,4C000000*,-702.6,974.299,90,32.4,45.1,0.412,746.8,2.1,1.050*
2018-06-07 01:00:00,-2.667E-01,4C000000*,-702.3,973.086,91,32.4,44.9,0.412,746.8,2.1,1.050*
2018-06-07 01:01:00,-2.663E-01,4C000000*,-702.6,973.086,90,32.4,45.2,0.412,746.5,2.1,1.050*
2018-06-07 01:02:00,-2.061E-01,4C000000*,-703.0,974.703,90,32.4,44.9,0.412,746.8,2.1,1.050*
2018-06-07 01:03:00,-2.132E-01,4C000000*,-702.6,973.895,90,32.4,45.1,0.412,746.8,2.1,1.050*
2018-06-07 01:04:00,-2.326E-01,4C000000*,-702.6,974.299,89,32.4,44.9,0.412,746.5,2.1,1.050*
2018-06-07 01:05:00,-2.999E-01,4C000000*,-703.0,973.895,90,32.5,45.1,0.412,746.8,2.1,1.050*
2018-06-07 01:06:00,-2.133E-01,4C000000*,-702.6,972.682,90,32.5,45.1,0.412,746.8,2.1,1.050*
2018-06-07 01:07:00,-2.908E-01,4C000000*,-702.6,973.491,90,32.6,44.9,0.412,746.8,2.1,1.050*
2018-06-07 01:08:00,-2.093E-01,4C000000*,-702.6,974.703,90,32.5,45.1,0.412,746.8,2.1,1.050*
2018-06-07 01:09:00,-3.100E-01,4C000000*,-702.6,973.895,90,32.5,44.9,0.412,746.8,2.1,1.050*
2018-06-07 01:10:00,-3.051E-01,4C000000*,-702.6,973.086,90,32.5,45.1,0.412,746.8,2.1,1.050*
2018-06-07 01:11:00,-2.706E-01,4C000000*,-702.6,973.491,89,32.5,44.9,0.412,746.8,2.1,1.050*
2018-06-07 01:12:00,-2.582E-01,4C000000*,-702.6,972.682,90,32.5,45.1,0.412,746.8,2.1,1.050*
2018-06-07 01:13:00,-2.305E-01,4C000000*,-702.6,973.086,90,32.5,45.1,0.412,747.1,2.1,1.050*
2018-06-07 01:14:00,-2.383E-01,4C000000*,-702.6,974.299,90,32.6,45.0,0.412,747.1,2.1,1.050*
2018-06-07 01:15:00,-2.335E-01,4C000000*,-702.6,974.299,91,32.6,45.1,0.412,747.4,2.1,1.050*
2018-06-07 01:16:00,-2.717E-01,4C000000*,-702.6,973.895,90,32.6,44.9,0.412,747.1,2.1,1.050*
2018-06-07 01:17:00,-2.225E-01,4C000000*,-702.6,974.299,90,32.6,45.1,0.412,747.1,2.1,1.050*
2018-06-07 01:18:00,-2.000E-01,4C000000*,-702.3,973.086,91,32.6,44.9,0.412,747.1,2.1,1.050*
2018-06-07 01:19:00,-2.696E-01,4C000000*,-702.6,974.299,88,32.6,45.2,0.412,747.4,2.1,1.050*
2018-06-07 01:20:00,-1.672E-01,4C000000*,-702.3,973.895,91,32.6,45.1,0.412,747.1,2.1,1.050*
2018-06-07 01:21:00,-1.891E-01,4C000000*,-702.6,974.703,91,32.7,45.0,0.412,747.1,2.1,1.050*
2018-06-07 01:22:00,-1.939E-01,4C000000*,-703.0,974.703,92,32.7,45.1,0.412,747.1,2.1,1.050*
2018-06-07 01:23:00,-2.638E-02,4C000000*,-702.3,973.895,91,32.6,44.9,0.412,747.4,2.1,1.050*
2018-06-07 01:24:00,1.726E-01,4C000000*,-703.4,974.299,89,32.6,45.2,0.412,747.4,2.1,1.050*
2018-06-07 01:25:00,1.331E-01,4C000000*,-702.6,973.086,90,32.6,44.9,0.412,747.1,2.1,1.050*
2018-06-07 01:26:00,1.487E-01,4C000000*,-703.0,973.491,91,32.7,45.2,0.412,747.1,2.1,1.050*
2018-06-07 01:27:00,3.793E-01,4C000000*,-702.6,973.086,89,32.7,45.0,0.412,747.1,2.1,1.050*
2018-06-07 01:28:00,2.171E-01,4C000000*,-702.6,974.299,90,32.7,45.0,0.412,747.1,2.1,1.050*
2018-06-07 01:29:00,-1.444E-01,4C000000*,-702.6,974.703,90,32.6,45.1,0.412,747.4,2.1,1.050*
2018-06-07 01:30:00,-5.091E-02,4C000000*,-702.6,973.086,91,32.6,44.9,0.412,747.4,2.1,1.050*
2018-06-07 01:31:00,-2.315E-01,4C000000*,-702.6,973.895,89,32.7,45.2,0.412,747.1,2.1,1.050*
2018-06-07 01:32:00,-2.776E-01,4C000000*,-702.6,973.895,91,32.7,44.8,0.412,747.4,2.1,1.050*
2018-06-07 01:33:00,-3.017E-01,4C000000*,-702.6,973.491,90,32.7,45.2,0.412,747.1,2.1,1.050*
2018-06-07 01:34:00,-1.941E-01,4C000000*,-702.6,972.682,89,32.7,45.0,0.412,747.1,2.1,1.050*
2018-06-07 01:35:00,-1.713E-01,4C000000*,-703.0,972.278,90,32.7,44.8,0.412,747.4,2.1,1.050*
2018-06-07 01:36:00,-2.842E-01,4C000000*,-702.3,974.299,89,32.7,45.2,0.412,747.4,2.1,1.050*
2018-06-07 01:37:00,-1.678E-01,4C000000*,-702.3,973.086,90,32.7,44.9,0.412,747.4,2.1,1.050*
2018-06-07 01:38:00,-2.193E-01,4C000000*,-702.6,973.086,89,32.8,45.2,0.412,747.4,2.1,1.050*
2018-06-07 01:39:00,-2.478E-01,4C000000*,-702.6,973.086,91,32.8,45.1,0.412,747.4,2.1,1.050*
2018-06-07 01:40:00,-2.497E-01,4C000000*,-702.6,972.278,89,32.8,45.0,0.412,747.4,2.1,1.050*
2018-06-07 01:41:00,-2.551E-01,4C000000*,-702.6,974.299,89,32.8,45.0,0.412,747.1,2.1,1.050*
2018-06-07 01:42:00,-2.001E-01,4C000000*,-702.6,972.278,90,32.8,44.9,0.412,747.4,2.1,1.050*
2018-06-07 01:43:00,-2.848E-01,4C000000*,-702.3,973.895,90,32.8,45.2,0.412,747.4,2.1,1.050*
2018-06-07 01:44:00,-1.409E-01,4C000000*,-702.6,973.086,90,32.8,44.9,0.412,747.4,2.1,1.050*
2018-06-07 01:45:00,-2.726E-01,4C000000*,-702.6,973.895,88,32.9,45.2,0.412,747.4,2.1,1.050*
2018-06-07 01:46:00,-2.105E-01,4C000000*,-702.3,973.491,91,32.8,44.9,0.413,748.4,2.1,1.050*
2018-06-07 01:47:00,2.867E-03,4C000000*,-702.6,973.086,89,32.8,45.1,0.412,747.4,2.1,1.050*
2018-06-07 01:48:00,1.078E-01,4C000000*,-703.0,973.895,91,32.8,45.0,0.412,747.4,2.1,1.050*
2018-06-07 01:49:00,2.725E-02,4C000000*,-702.6,973.086,90,32.8,44.9,0.412,747.4,2.1,1.050*
2018-06-07 01:50:00,-7.667E-02,4C000000*,-702.6,972.278,90,32.9,45.2,0.412,746.8,2.1,1.050*
2018-06-07 01:51:00,1.218E-01,4C000000*,-702.6,972.682,89,32.9,44.9,0.412,747.1,2.1,1.050*
2018-06-07 01:52:00,3.857E-02,4C000000*,-702.3,973.086,89,32.9,45.2,0.412,747.1,2.1,1.050*
2018-06-07 01:53:00,-1.258E-01,4C000000*,-702.6,974.299,90,32.9,44.9,0.412,746.8,2.1,1.050*
2018-06-07 01:54:00,-1.671E-01,4C000000*,-702.6,973.491,89,32.9,45.1,0.412,747.1,2.1,1.050*
2018-06-07 01:55:00,-7.435E-02,4C000000*,-702.6,973.895,91,32.9,45.1,0.412,746.8,2.1,1.050*
2018-06-07 01:56:00,-1.618E-01,4C000000*,-702.3,973.895,91,32.9,44.9,0.412,747.1,2.1,1.050*
2018-06-07 01:57:00,-2.438E-01,4C000000*,-702.6,973.895,89,32.9,45.2,0.412,746.8,2.1,1.050*
2018-06-07 01:58:00,-1.337E-01,4C000000*,-702.6,974.299,90,32.8,44.8,0.412,746.8,2.1,1.050*
2018-06-07 01:59:00,-7.698E-02,4C000000*,-702.3,974.299,90,32.9,45.2,0.413,749.0,2.1,1.050*
2018-06-07 02:00:00,-1.211E-01,4C000000*,-702.6,974.703,90,32.9,45.0,0.412,746.8,2.1,1.050*
2018-06-07 02:01:00,-1.592E-01,4C000000*,-702.6,973.895,89,32.9,45.1,0.412,747.8,2.1,1.050*
2018-06-07 02:02:00,-2.434E-01,4C000000*,-702.6,973.895,90,32.9,45.0,0.412,746.8,2.1,1.050*
2018-06-07 02:03:00,-1.790E-01,4C000000*,-702.6,974.299,89,32.9,44.9,0.412,747.1,2.1,1.050*
2018-06-07 02:04:00,-2.177E-01,4C000000*,-702.6,973.895,88,32.9,45.2,0.412,746.8,2.1,1.050*
2018-06-07 02:05:00,-2.404E-01,4C000000*,-703.0,974.703,90,32.9,44.8,0.412,747.1,2.1,1.050*
2018-06-07 02:06:00,-2.340E-01,4C000000*,-702.3,972.682,90,32.9,45.1,0.412,747.1,2.1,1.050*
2018-06-07 02:07:00,-2.288E-01,4C000000*,-702.6,975.108,90,32.9,44.9,0.412,747.1,2.1,1.050*
2018-06-07 02:08:00,-1.320E-01,4C000000*,-702.3,973.491,90,33.0,45.1,0.413,747.1,2.1,1.050*
2018-06-07 02:09:00,-1.925E-01,4C000000*,-703.0,974.299,90,33.0,45.1,0.412,746.8,2.1,1.050*
2018-06-07 02:10:00,-1.848E-01,4C000000*,-702.6,972.682,90,33.0,44.9,0.412,747.1,2.1,1.050*
2018-06-07 02:11:00,-1.722E-01,4C000000*,-702.6,974.703,89,33.1,45.2,0.412,747.1,2.1,1.050*
2018-06-07 02:12:00,-1.153E-01,4C000000*,-702.3,973.895,90,33.0,44.9,0.412,747.1,2.1,1.050*
2018-06-07 02:13:00,-2.289E-01,4C000000*,-702.3,973.491,89,33.0,45.1,0.412,747.1,2.1,1.050*
2018-06-07 02:14:00,-1.690E-01,4C000000*,-702.3,974.299,90,33.0,44.9,0.412,747.1,2.1,1.050*
2018-06-07 02:15:00,-2.093E-01,4C000000*,-702.3,974.703,90,33.1,45.2,0.412,747.1,2.1,1.050*
2018-06-07 02:16:00,-2.390E-01,4C000000*,-702.6,975.512,89,33.0,45.1,0.412,747.1,2.1,1.050*
2018-06-07 02:17:00,-1.423E-01,4C000000*,-702.6,975.108,90,33.1,45.0,0.412,747.4,2.1,1.050*
2018-06-07 02:18:00,-2.296E-01,4C000000*,-702.6,975.916,90,33.1,45.1,0.412,747.1,2.1,1.050*
2018-06-07 02:19:00,-2.590E-01,4C000000*,-702.6,973.895,89,33.0,44.9,0.412,747.1,2.1,1.050*
2018-06-07 02:20:00,-1.356E-01,4C000000*,-702.3,974.703,89,33.1,45.2,0.412,747.1,2.1,1.050*
2018-06-07 02:21:00,-1.389E-01,4C000000*,-703.0,973.086,90,33.1,44.9,0.412,747.1,2.1,1.050*
2018-06-07 02:22:00,-2.714E-01,4C000000*,-702.3,975.108,90,33.0,45.2,0.412,747.1,2.1,1.050*
2018-06-07 02:23:00,-1.563E-01,4C000000*,-703.0,974.703,91,33.1,45.1,0.412,747.1,2.1,1.050*
2018-06-07 02:24:00,-1.772E-01,4C000000*,-702.3,974.703,91,33.1,45.0,0.412,747.1,2.1,1.050*
2018-06-07 02:25:00,-2.693E-01,4C000000*,-702.6,974.299,90,33.1,45.1,0.412,747.4,2.1,1.050*
2018-06-07 02:26:00,-1.255E-01,4C000000*,-702.6,974.299,90,33.1,44.9,0.413,747.8,2.1,1.050*
2018-06-07 02:27:00,-2.113E-01,4C000000*,-702.3,974.299,91,33.1,45.2,0.412,747.8,2.1,1.050*
2018-06-07 02:28:00,-1.725E-01,4C000000*,-702.6,973.895,90,33.1,44.9,0.413,747.4,2.1,1.050*
"read_dt","SO2 (ppb)","flags","PMT voltage (V)","lamp voltage (V)","lamp intensity (Hz)","internal temp (C)","react chamber temp (C)","sample flow (l/min)","pres (mmHg)","SO2 bkg (ppb)","SO2 coefficient"
2018-06-07 04:21:00,-3.578E-02,4C000000*,-702.6,975.512,90,33.3,45.0,0.413,748.1,2.1,1.050*
2018-06-07 04:22:00,-1.689E-01,4C000000*,-702.3,975.512,91,33.4,45.0,0.413,748.1,2.1,1.050*
2018-06-07 04:23:00,-1.825E-01,4C000000*,-702.6,976.320,90,33.4,45.1,0.413,748.1,2.1,1.050*
2018-06-07 04:24:00,-2.006E-01,4C000000*,-702.6,976.725,91,33.4,44.9,0.413,748.1,2.1,1.050*
2018-06-07 04:25:00,-2.243E-01,4C000000*,-703.0,975.512,90,33.4,45.1,0.414,748.1,2.1,1.050*
2018-06-07 04:26:00,-1.899E-01,4C000000*,-702.6,975.108,89,33.4,44.9,0.414,748.1,2.1,1.050*
2018-06-07 04:27:00,-1.607E-01,4C000000*,-702.6,975.108,88,33.3,45.1,0.414,748.7,2.1,1.050*
2018-06-07 04:28:00,-1.094E-01,4C000000*,-702.6,973.895,91,33.3,45.1,0.414,748.4,2.1,1.050*
2018-06-07 04:29:00,-3.281E-02,4C000000*,-702.6,974.703,90,33.5,45.0,0.414,748.7,2.1,1.050*
"read_dt","SO2 (ppb)","flags","PMT voltage (V)","lamp voltage (V)","lamp intensity (Hz)","internal temp (C)","react chamber temp (C)","sample flow (l/min)","pres (mmHg)","SO2 bkg (ppb)","SO2 coefficient"
2018-06-07 04:44:00,-2.700E-01,4C000000*,-703.0,975.512,88,33.2,45.1,0.414,748.1,2.1,1.050*
2018-06-07 04:45:00,-1.679E-01,4C000000*,-702.6,973.895,90,33.1,44.9,0.414,748.4,2.1,1.050*
2018-06-07 04:46:00,-8.751E-02,4C000000*,-702.6,975.108,90,33.2,45.2,0.414,748.1,2.1,1.050*
2018-06-07 04:47:00,-1.387E-01,4C000000*,-702.6,975.108,90,32.9,44.9,0.414,748.1,2.1,1.050*
2018-06-07 04:48:00,-8.422E-02,4C000000*,-702.3,977.533,90,33.0,45.2,0.414,748.4,2.1,1.050*
2018-06-07 04:49:00,-2.014E-01,4C000000*,-702.6,975.916,90,32.9,44.9,0.414,748.1,2.1,1.050*
2018-06-07 04:50:00,-2.819E-01,4C000000*,-703.0,974.299,89,32.9,45.0,0.414,748.4,2.1,1.050*
2018-06-07 04:51:00,-2.427E-01,4C000000*,-701.9,975.108,89,32.8,45.0,0.414,748.4,2.1,1.050*
2018-06-07 04:52:00,-1.973E-01,4C000000*,-702.6,976.320,90,32.7,44.9,0.414,748.4,2.1,1.050*
2018-06-07 04:53:00,-1.755E-01,4C000000*,-702.3,975.916,90,32.7,45.2,0.414,748.4,2.1,1.050*
2018-06-07 04:54:00,-3.362E-02,4C000000*,-701.9,975.916,88,32.7,44.8,0.414,748.4,2.1,1.050*
2018-06-07 04:55:00,-1.763E-01,4C000000*,-702.3,975.916,89,32.7,45.2,0.414,748.4,2.1,1.050*
2018-06-07 04:56:00,-1.383E-01,4C000000*,-702.6,975.512,89,32.6,45.0,0.414,748.4,2.1,1.050*
2018-06-07 04:57:00,-3.608E-02,4C000000*,-702.3,977.129,88,32.6,45.1,0.414,748.7,2.1,1.050*
2018-06-07 04:58:00,-1.797E-01,4C000000*,-702.6,975.108,90,32.6,45.1,0.414,748.4,2.1,1.050*
2018-06-07 04:59:00,-2.371E-01,4C000000*,-702.6,976.320,89,32.5,44.9,0.414,748.7,2.1,1.050*
2018-06-07 05:00:00,-9.979E-02,4C000000*,-703.0,975.916,89,32.5,45.2,0.414,748.4,2.1,1.050*
2018-06-07 05:01:00,-2.272E-01,4C000000*,-702.3,975.916,91,32.4,44.9,0.414,748.4,2.1,1.050*
2018-06-07 05:02:00,-1.555E-01,4C000000*,-702.6,975.916,91,32.4,45.2,0.414,748.7,2.1,1.050*
2018-06-07 05:03:00,-1.380E-01,4C000000*,-702.3,974.703,88,32.4,44.9,0.414,748.4,2.1,1.050*
2018-06-07 05:04:00,-8.219E-02,4C000000*,-702.3,975.916,91,32.4,45.1,0.414,748.7,2.1,1.050*
2018-06-07 05:05:00,-1.904E-01,4C000000*,-702.6,975.916,90,32.2,45.1,0.414,748.4,2.1,1.050*
2018-06-07 05:06:00,-9.891E-02,4C000000*,-702.6,976.320,87,32.2,44.9,0.414,748.7,2.1,1.050*
2018-06-07 05:07:00,-1.553E-01,4C000000*,-702.3,976.725,91,32.2,45.1,0.414,748.7,2.1,1.050*
"read_dt","SO2 (ppb)","flags","PMT voltage (V)","lamp voltage (V)","lamp intensity (Hz)","internal temp (C)","react chamber temp (C)","sample flow (l/min)","pres (mmHg)","SO2 bkg (ppb)","SO2 coefficient"
2018-06-07 05:10:00,-1.437E-01,4C000000*,-703.0,975.512,91,32.1,44.9,0.414,748.4,2.1,1.050*
2018-06-07 05:11:00,-3.087E-01,4C000000*,-702.3,975.916,90,32.1,45.1,0.414,748.7,2.1,1.050*
2018-06-07 05:12:00,-1.826E-01,4C000000*,-702.6,976.320,90,32.0,45.0,0.414,748.7,2.1,1.050*
2018-06-07 05:13:00,-1.873E-01,4C000000*,-702.6,975.916,88,32.0,45.0,0.414,748.7,2.1,1.050*
2018-06-07 05:14:00,-2.192E-01,4C000000*,-702.3,975.512,90,31.9,45.1,0.414,748.7,2.1,1.050*
2018-06-07 05:15:00,-1.606E-01,4C000000*,-702.6,975.512,90,31.9,44.9,0.414,748.7,2.1,1.050*
2018-06-07 05:16:00,-1.980E-01,4C000000*,-702.6,975.108,90,31.9,45.2,0.414,748.7,2.1,1.050*
2018-06-07 05:17:00,-1.159E-01,4C000000*,-702.6,975.108,90,31.8,44.9,0.414,748.7,2.1,1.050*
2018-06-07 05:18:00,-1.336E-01,4C000000*,-702.6,976.725,88,31.8,45.2,0.414,748.7,2.1,1.050*
2018-06-07 05:19:00,-1.536E-01,4C000000*,-703.0,975.108,90,31.7,44.9,0.414,748.7,2.1,1.050*
2018-06-07 05:20:00,-5.860E-02,4C000000*,-702.6,974.299,90,31.8,45.1,0.414,748.7,2.1,1.050*
2018-06-07 05:21:00,-1.776E-02,4C000000*,-703.0,975.108,90,31.8,44.9,0.414,748.7,2.1,1.050*
2018-06-07 05:22:00,1.511E-01,4C000000*,-702.6,975.916,90,31.9,45.1,0.414,749.0,2.1,1.050*
2018-06-07 05:23:00,2.934E-01,4C000000*,-702.3,976.725,90,31.9,45.1,0.414,748.7,2.1,1.050*
2018-06-07 05:24:00,7.037E-01,4C000000*,-702.6,976.725,89,31.9,44.9,0.414,748.7,2.1,1.050*
2018-06-07 05:25:00,7.351E-01,4C000000*,-702.6,975.512,89,32.0,45.1,0.414,748.7,2.1,1.050*
2018-06-07 05:26:00,2.377E-01,4C000000*,-702.6,976.725,87,32.1,44.8,0.414,749.0,2.1,1.050*
2018-06-07 05:27:00,1.546E-01,4C000000*,-702.3,975.512,89,32.1,45.1,0.413,748.7,2.1,1.050*
2018-06-07 05:28:00,-9.597E-02,4C000000*,-702.6,975.512,88,32.1,44.9,0.413,748.7,2.1,1.050*
2018-06-07 05:29:00,-1.272E-01,4C000000*,-702.6,975.108,90,32.2,45.1,0.414,748.7,2.1,1.050*
2018-06-07 05:30:00,-2.361E-01,4C000000*,-702.6,975.108,90,32.3,45.1,0.414,748.7,2.1,1.050*
2018-06-07 05:31:00,-1.452E-01,4C000000*,-702.6,974.703,90,32.4,45.0,0.414,749.0,2.1,1.050*
2018-06-07 05:32:00,-8.331E-02,4C000000*,-702.6,975.108,91,32.4,45.1,0.413,749.0,2.1,1.050*
2018-06-07 05:33:00,-1.094E-01,4C000000*,-702.3,975.512,89,32.4,44.9,0.414,749.0,2.1,1.050*
2018-06-07 05:34:00,-2.151E-01,4C000000*,-702.6,974.703,90,32.5,45.1,0.414,748.7,2.1,1.050*
2018-06-07 05:35:00,-2.635E-01,4C000000*,-703.0,975.512,88,32.5,44.9,0.413,749.0,2.1,1.050*
2018-06-07 05:36:00,-1.860E-01,4C000000*,-702.6,976.320,90,32.6,45.2,0.414,749.0,2.1,1.050*
2018-06-07 05:37:00,-2.948E-01,4C000000*,-702.3,975.916,88,32.5,45.0,0.414,749.0,2.1,1.050*
2018-06-07 05:38:00,-2.681E-01,4C000000*,-702.3,976.320,90,32.5,45.0,0.414,749.0,2.1,1.050*
2018-06-07 05:39:00,-2.252E-01,4C000000*,-702.3,976.320,91,32.6,45.0,0.414,749.0,2.1,1.050*
2018-06-07 05:40:00,-2.200E-01,4C000000*,-702.6,976.320,90,32.6,44.9,0.414,749.0,2.1,1.050*
2018-06-07 05:41:00,-1.664E-01,4C000000*,-702.6,975.512,89,32.7,45.2,0.414,749.0,2.1,1.050*
2018-06-07 05:42:00,3.171E-02,4C000000*,-702.6,975.108,90,32.7,44.9,0.414,749.0,2.1,1.050*
2018-06-07 05:43:00,6.402E-01,4C000000*,-702.3,975.108,90,32.8,45.2,0.413,749.0,2.1,1.050*
2018-06-07 05:44:00,1.029E+00,4C000000*,-702.6,977.533,90,32.7,44.9,0.414,749.0,2.1,1.050*
2018-06-07 05:45:00,5.841E-01,4C000000*,-702.6,975.916,90,32.7,45.0,0.414,749.0,2.1,1.050*
2018-06-07 05:46:00,1.349E-01,4C000000*,-702.6,976.320,91,32.8,45.0,0.414,749.0,2.1,1.050*
2018-06-07 05:47:00,-2.355E-01,4C000000*,-702.6,975.512,91,32.8,44.9,0.414,749.0,2.1,1.050*
2018-06-07 05:48:00,-1.402E-01,4C000000*,-702.6,974.703,90,32.8,45.2,0.414,749.3,2.1,1.050*
2018-06-07 05:49:00,-1.010E-01,4C000000*,-702.6,975.108,91,32.9,44.8,0.414,749.0,2.1,1.050*
2018-06-07 05:50:00,-2.114E-01,4C000000*,-702.6,976.320,90,32.9,45.2,0.414,749.0,2.1,1.050*
2018-06-07 05:51:00,-1.931E-01,4C000000*,-702.6,975.108,90,32.9,44.9,0.413,748.7,2.1,1.050*
2018-06-07 05:52:00,-5.456E-02,4C000000*,-702.6,975.108,89,32.9,45.1,0.413,749.0,2.1,1.050*
2018-06-07 05:53:00,-5.812E-02,4C000000*,-703.0,975.916,90,32.9,45.0,0.414,748.7,2.1,1.050*
2018-06-07 05:54:00,1.703E-01,4C000000*,-702.3,975.512,91,32.9,44.9,0.414,749.0,2.1,1.050*
2018-06-07 05:55:00,1.834E-02,4C000000*,-702.6,975.916,90,32.9,45.2,0.414,749.0,2.1,1.050*
2018-06-07 05:56:00,4.901E-01,4C000000*,-702.6,974.703,90,33.0,44.9,0.414,749.0,2.1,1.050*
2018-06-07 05:57:00,2.003E-01,4C000000*,-702.3,976.725,90,33.0,45.2,0.414,749.0,2.1,1.050*
2018-06-07 05:58:00,1.183E-01,4C000000*,-702.3,976.320,90,33.0,44.9,0.414,749.0,2.1,1.050*
2018-06-07 05:59:00,1.880E-02,4C000000*,-702.6,974.703,90,33.0,45.1,0.414,749.3,2.1,1.050*
2018-06-07 06:00:00,-1.126E-01,4C000000*,-702.6,975.512,90,33.0,45.1,0.414,749.0,2.1,1.050*
2018-06-07 06:01:00,-1.086E-01,4C000000*,-702.6,975.916,90,33.0,44.9,0.414,749.3,2.1,1.050*
2018-06-07 06:02:00,-1.369E-01,4C000000*,-703.0,975.108,90,33.0,45.2,0.414,749.0,2.1,1.050*
2018-06-07 06:03:00,-1.548E-01,4C000000*,-702.6,975.512,90,33.0,44.8,0.414,749.0,2.1,1.050*
2018-06-07 06:04:00,-2.564E-01,4C000000*,-702.6,975.916,90,33.1,45.2,0.414,749.3,2.1,1.050*
2018-06-07 06:05:00,-2.826E-01,4C000000*,-702.6,975.512,89,33.1,44.9,0.414,749.0,2.1,1.050*
2018-06-07 06:06:00,-1.691E-01,4C000000*,-703.0,975.916,91,33.1,45.1,0.414,749.3,2.1,1.050*
2018-06-07 06:07:00,-1.529E-01,4C000000*,-702.6,975.512,90,33.2,45.1,0.414,749.0,2.1,1.050*
2018-06-07 06:08:00,-1.411E-01,4C000000*,-702.3,976.320,90,33.1,44.9,0.414,749.3,2.1,1.050*
2018-06-07 06:09:00,-3.697E-02,4C000000*,-702.3,975.916,89,33.1,45.1,0.414,749.3,2.1,1.050*
2018-06-07 06:10:00,-1.201E-01,4C000000*,-702.6,976.725,91,33.1,44.9,0.414,749.3,2.1,1.050*
2018-06-07 06:11:00,-1.258E-01,4C000000*,-702.3,975.512,91,33.1,45.1,0.414,749.0,2.1,1.050*
2018-06-07 06:12:00,-1.360E-01,4C000000*,-702.6,975.108,89,33.2,44.9,0.414,749.3,2.1,1.050*
2018-06-07 06:13:00,-2.447E-01,4C000000*,-702.6,975.512,88,33.1,45.2,0.414,749.3,2.1,1.050*
2018-06-07 06:14:00,-2.129E-01,4C000000*,-702.3,974.299,90,33.2,45.1,0.414,749.3,2.1,1.050*
2018-06-07 06:15:00,-2.330E-01,4C000000*,-702.6,975.108,90,33.2,45.0,0.414,749.0,2.1,1.050*
2018-06-07 06:16:00,-2.545E-01,4C000000*,-702.3,975.916,90,33.2,45.1,0.414,749.0,2.1,1.050*